When you browse on this site, cookies collect data to enhance your experience and personalize the content and advertising you see.
Visit our Privacy Policy to learn more. By continuing to use the site, you agree to this use of cookies and data.
  • In Hungary
  • List of Countries
  • For 7 days
  • Water Temperature
  • Satellite Maps
  • Weather Map
  • News
  • Weather Widgets
  • user-avatar
    Login

    Hourly Weather Szarcz

    Today, 26 May, Sunday

    Time Temperature Precipitation Wind Pressure Humidity
    00:00 +9°C° 0 mm 2 mps 755 mmHg 85%
    01:00 +9°C° 0 mm 2 mps 756 mmHg 86%
    02:00 +9°C° 0 mm 2 mps 755 mmHg 85%
    03:00 +9°C° 0 mm 2 mps 755 mmHg 83%
    04:00 +10°C° 0 mm 2 mps 755 mmHg 81%
    05:00 +10°C° 0 mm 3 mps 755 mmHg 77%
    06:00 +11°C° 0 mm 3 mps 755 mmHg 73%
    07:00 +12°C° 0 mm 3 mps 755 mmHg 68%
    08:00 +14°C° 0 mm 4 mps 755 mmHg 63%
    09:00 +15°C° 0 mm 4 mps 755 mmHg 59%
    10:00 +18°C° 0 mm 4 mps 754 mmHg 54%
    11:00 +19°C° 0 mm 5 mps 754 mmHg 50%
    12:00 +20°C° 0 mm 5 mps 753 mmHg 47%
    13:00 +21°C° 0 mm 5 mps 753 mmHg 44%
    14:00 +21°C° 0 mm 5 mps 753 mmHg 47%
    15:00 +21°C° 0 mm 5 mps 752 mmHg 50%
    16:00 +21°C° 0 mm 5 mps 752 mmHg 53%
    17:00 +20°C° 0 mm 4 mps 752 mmHg 57%
    18:00 +20°C° 0 mm 3 mps 752 mmHg 62%
    19:00 +19°C° 0 mm 2 mps 752 mmHg 66%
    20:00 +18°C° 0 mm 2 mps 752 mmHg 70%
    21:00 +17°C° 0 mm 2 mps 751 mmHg 74%
    22:00 +16°C° 0 mm 2 mps 751 mmHg 77%
    23:00 +16°C° 0 mm 2 mps 751 mmHg 78%

    Tomorrow, 27 May, Monday

    Time Temperature Precipitation Wind Pressure Humidity
    00:00 +16°C° 0 mm 3 mps 751 mmHg 79%
    01:00 +15°C° 0 mm 4 mps 751 mmHg 80%
    02:00 +15°C° 0 mm 4 mps 750 mmHg 80%
    03:00 +15°C° 0 mm 4 mps 750 mmHg 79%
    04:00 +15°C° 0 mm 4 mps 750 mmHg 78%
    05:00 +17°C° 0 mm 4 mps 750 mmHg 75%
    06:00 +17°C° 0 mm 5 mps 750 mmHg 72%
    07:00 +19°C° 0 mm 5 mps 750 mmHg 69%
    08:00 +20°C° 0 mm 5 mps 750 mmHg 66%
    09:00 +21°C° 0 mm 5 mps 750 mmHg 63%
    10:00 +22°C° 0 mm 6 mps 750 mmHg 60%
    11:00 +22°C° 0.4 mm 6 mps 750 mmHg 62%
    12:00 +21°C° 0.4 mm 6 mps 750 mmHg 63%
    13:00 +21°C° 0.4 mm 6 mps 750 mmHg 65%
    14:00 +21°C° 0 mm 5 mps 751 mmHg 61%
    15:00 +21°C° 0 mm 5 mps 751 mmHg 57%
    16:00 +21°C° 0 mm 4 mps 751 mmHg 53%
    17:00 +20°C° 0 mm 4 mps 751 mmHg 58%
    18:00 +19°C° 0 mm 3 mps 751 mmHg 63%
    19:00 +17°C° 0 mm 3 mps 751 mmHg 68%
    20:00 +16°C° 0 mm 2 mps 751 mmHg 73%
    21:00 +15°C° 0 mm 2 mps 751 mmHg 78%
    22:00 +13°C° 0 mm 2 mps 751 mmHg 83%
    23:00 +13°C° 0 mm 2 mps 751 mmHg 82%

    Day after tomorrow, 28 May, Tuesday

    Time Temperature Precipitation Wind Pressure Humidity
    00:00 +13°C° 0 mm 2 mps 751 mmHg 81%
    01:00 +13°C° 0 mm 2 mps 751 mmHg 79%
    02:00 +13°C° 0.1 mm 2 mps 750 mmHg 82%
    03:00 +13°C° 0.1 mm 2 mps 750 mmHg 84%
    04:00 +13°C° 0.1 mm 2 mps 749 mmHg 87%
    05:00 +12°C° 1 mm 2 mps 749 mmHg 88%
    06:00 +12°C° 1 mm 2 mps 749 mmHg 90%
    07:00 +12°C° 1 mm 2 mps 749 mmHg 92%
    08:00 +12°C° 1.8 mm 2 mps 749 mmHg 92%
    09:00 +11°C° 1.8 mm 3 mps 749 mmHg 92%
    10:00 +11°C° 1.8 mm 3 mps 748 mmHg 92%
    11:00 +11°C° 2.1 mm 3 mps 749 mmHg 92%
    12:00 +11°C° 2.1 mm 3 mps 749 mmHg 92%
    13:00 +12°C° 2.1 mm 2 mps 749 mmHg 92%
    14:00 +12°C° 0.6 mm 2 mps 749 mmHg 91%
    15:00 +12°C° 0.6 mm 2 mps 749 mmHg 89%
    16:00 +12°C° 0.6 mm 2 mps 749 mmHg 88%
    17:00 +12°C° 0 mm 2 mps 749 mmHg 89%
    18:00 +12°C° 0 mm 1 mps 749 mmHg 89%
    19:00 +12°C° 0 mm 1 mps 749 mmHg 90%
    20:00 +12°C° 0 mm 1 mps 749 mmHg 91%
    21:00 +11°C° 0 mm 1 mps 749 mmHg 93%
    22:00 +11°C° 0 mm 1 mps 750 mmHg 94%
    23:00 +10°C° 0 mm 1 mps 750 mmHg 94%

    29 May, Wednesday

    Time Temperature Precipitation Wind Pressure Humidity
    00:00 +10°C° 0 mm 1 mps 750 mmHg 94%
    01:00 +10°C° 0 mm 1 mps 750 mmHg 94%
    02:00 +9°C° 0 mm 1 mps 750 mmHg 94%
    03:00 +9°C° 0 mm 1 mps 750 mmHg 93%
    04:00 +9°C° 0 mm 1 mps 750 mmHg 93%
    05:00 +11°C° 0 mm 1 mps 750 mmHg 90%
    06:00 +12°C° 0 mm 2 mps 751 mmHg 86%
    07:00 +14°C° 0 mm 2 mps 751 mmHg 83%
    08:00 +15°C° 0.2 mm 2 mps 751 mmHg 79%
    09:00 +16°C° 0.2 mm 2 mps 751 mmHg 74%
    10:00 +18°C° 0.2 mm 3 mps 751 mmHg 69%
    11:00 +18°C° 0.5 mm 3 mps 752 mmHg 69%
    12:00 +18°C° 0.5 mm 3 mps 752 mmHg 69%
    13:00 +18°C° 0.5 mm 4 mps 752 mmHg 69%
    14:00 +18°C° 0.5 mm 4 mps 752 mmHg 72%
    15:00 +16°C° 0.5 mm 5 mps 753 mmHg 75%
    16:00 +15°C° 0.5 mm 6 mps 753 mmHg 78%
    17:00 +14°C° 0.1 mm 5 mps 754 mmHg 78%
    18:00 +13°C° 0.1 mm 5 mps 754 mmHg 78%
    19:00 +12°C° 0.1 mm 4 mps 755 mmHg 79%
    20:00 +11°C° 0 mm 4 mps 755 mmHg 79%
    21:00 +9°C° 0 mm 3 mps 756 mmHg 80%
    22:00 +8°C° 0 mm 3 mps 757 mmHg 80%
    23:00 +8°C° 0 mm 2 mps 757 mmHg 82%

    30 May, Thursday

    Time Temperature Precipitation Wind Pressure Humidity
    00:00 +7°C° 0 mm 2 mps 758 mmHg 84%
    01:00 +6°C° 0 mm 2 mps 758 mmHg 85%
    02:00 +6°C° 0 mm 2 mps 758 mmHg 87%
    03:00 +6°C° 0 mm 2 mps 759 mmHg 89%
    04:00 +5°C° 0 mm 2 mps 759 mmHg 91%
    05:00 +7°C° 0 mm 2 mps 760 mmHg 82%
    06:00 +10°C° 0 mm 1 mps 760 mmHg 73%
    07:00 +12°C° 0 mm 1 mps 760 mmHg 64%
    08:00 +13°C° 0 mm 2 mps 760 mmHg 58%
    09:00 +15°C° 0 mm 2 mps 760 mmHg 51%
    10:00 +17°C° 0 mm 2 mps 760 mmHg 45%
    11:00 +17°C° 0 mm 2 mps 760 mmHg 44%
    12:00 +18°C° 0 mm 2 mps 760 mmHg 43%
    13:00 +18°C° 0 mm 2 mps 760 mmHg 42%
    14:00 +18°C° 0 mm 2 mps 759 mmHg 44%
    15:00 +19°C° 0 mm 2 mps 759 mmHg 45%
    16:00 +19°C° 0 mm 3 mps 759 mmHg 46%
    17:00 +18°C° 0.1 mm 2 mps 759 mmHg 54%
    18:00 +17°C° 0.1 mm 2 mps 758 mmHg 62%
    19:00 +16°C° 0.1 mm 2 mps 758 mmHg 70%
    20:00 +14°C° 0 mm 3 mps 758 mmHg 73%
    21:00 +13°C° 0 mm 3 mps 758 mmHg 76%
    22:00 +12°C° 0 mm 3 mps 758 mmHg 79%
    23:00 +13°C° 0 mm 3 mps 758 mmHg 78%

    31 May, Friday

    Time Temperature Precipitation Wind Pressure Humidity
    00:00 +13°C° 0 mm 4 mps 757 mmHg 77%
    01:00 +14°C° 0 mm 4 mps 757 mmHg 76%
    02:00 +13°C° 0.1 mm 4 mps 757 mmHg 80%
    03:00 +13°C° 0.1 mm 4 mps 756 mmHg 84%
    04:00 +13°C° 0.1 mm 4 mps 756 mmHg 88%
    05:00 +13°C° 0.5 mm 5 mps 757 mmHg 90%
    06:00 +13°C° 0.5 mm 5 mps 757 mmHg 92%
    07:00 +13°C° 0.5 mm 5 mps 757 mmHg 93%
    08:00 +13°C° 0.3 mm 5 mps 758 mmHg 90%
    09:00 +12°C° 0.3 mm 5 mps 759 mmHg 87%
    10:00 +12°C° 0.3 mm 5 mps 760 mmHg 84%
    11:00 +13°C° 0 mm 5 mps 760 mmHg 69%
    12:00 +15°C° 0 mm 5 mps 761 mmHg 54%
    13:00 +17°C° 0 mm 5 mps 762 mmHg 39%
    14:00 +17°C° 0 mm 5 mps 762 mmHg 39%
    15:00 +18°C° 0 mm 4 mps 762 mmHg 38%
    16:00 +18°C° 0 mm 4 mps 763 mmHg 38%
    17:00 +17°C° 0 mm 3 mps 763 mmHg 44%
    18:00 +16°C° 0 mm 2 mps 763 mmHg 50%
    19:00 +15°C° 0 mm 1 mps 764 mmHg 55%
    20:00 +13°C° 0 mm 1 mps 764 mmHg 58%
    21:00 +12°C° 0 mm 1 mps 764 mmHg 62%
    22:00 +9°C° 0 mm 0 mps 764 mmHg 65%
    23:00 +10°C° 0 mm 1 mps 764 mmHg 64%
    Show more